Hourly Weather Roundup
Issued by NWS

Home | Current Version | Previous Version | Text Only | Print | Product List | Glossary On
Versions: 1 2 3 4 5 6 7 8 9 10 11 12 13 14 15 16 17 18 19 20 21 22 23 24 25 26 27 28 29 30 31 32 33 34 35 36 37 38 39 40 41 42 43 44 45 46 47 48 49 50
000
NZUS43 KILX 051210
HWRCRS

CRS HOURLY WEATHER ROUNDUP
NATIONAL WEATHER SERVICE, LINCOLN IL
700 AM CDT SAT SEP 05 2015


CITY           SKY/WX    TMP DP  RH WIND       PRES   REMARKS
CHAMPAIGN      PTCLDY    69  67  93 S5        30.11R FOG
LAWRENCEVILLE  CLEAR     69  67  93 E3        30.11R FOG
PEORIA         MOCLDY    74  67  78 CALM      30.09S
SPRINGFIELD    CLEAR     70  65  84 CALM      30.10R
$$


CITY           SKY/WX    TMP DP  RH WIND       PRES   REMARKS
BLOOMINGTON    PTCLDY    70  66  86 S7        30.12R
DECATUR        CLEAR     68  62  81 CALM      30.10S
EFFINGHAM      CLEAR     66  64  91 CALM      30.12R FOG
FLORA          CLEAR     67  66  95 N3        30.12R FOG
GALESBURG      MOCLDY    71  68  89 SE5       30.08R
JACKSONVILLE   CLEAR     71  68  90 SE3       30.09R
LACON          CLOUDY    72  67  83 S5        30.08R
LINCOLN        PTCLDY    69  64  84 CALM      30.10R
LITCHFIELD     CLEAR     70  65  85 SE3       30.10S

CITY           SKY/WX    TMP DP  RH WIND       PRES   REMARKS
MACOMB         PTCLDY    67  67  98 CALM      30.10R FOG
MATTOON        CLEAR     71  67  87 S7        30.10S
MOLINE         MOCLDY    73  68  84 CALM      30.05S
OLNEY          CLEAR     68  64  88 CALM      30.11R FOG
PARIS          CLEAR     67  67  98 SE3       30.12R FOG
PONTIAC        MOCLDY    69  67  96 S3        30.10S FOG
QUINCY         CLEAR     72  69  90 S5        30.07R
RANTOUL        MOCLDY    69  66  92 CALM      30.11R
ROBINSON       CLEAR     65  64  96 CALM      30.12R FOG
TAYLORVILLE    CLEAR     66  64  94 SE3       30.10R
TERRE HAUTE    CLEAR     66  63  90 CALM      30.11R
$$


CITY           SKY/WX    TMP DP  RH WIND       PRES   REMARKS
BURLINGTON     PTCLDY    71  70  96 SE3       30.06R
CHICAGO        MOCLDY    71  67  87 S5        30.07S
DES MOINES     MOCLDY    74  68  81 SE7       30.00R
EVANSVILLE     CLEAR     70  66  87 CALM      30.10R
INDIANAPOLIS   PTCLDY    68  65  90 E3        30.12R
KANSAS CITY    PTCLDY    73  68  84 S10       30.01S
MILWAUKEE      CLOUDY    66  65  96 NE3       30.08S FOG
ST LOUIS       PTCLDY    74  67  78 E5        30.09R
$$




USA.gov is the U.S. government's official web portal to all federal, state and local government web resources and services.